Chicago, IL

12:45 PM CST on November 22, 2019 (GMT -0600)
Chicago-O'Hare International

Weather History for KORD - May, 2019

Change the Weather History Date:

Thursday, May 16, 2019

  Actual Average Record
Temperature  
Mean Temperature 68 °F 59 °F  
Max Temperature 77 °F 70 °F 94 °F (1962)
Min Temperature 60 °F 48 °F 33 °F (1997)
Degree Days  
Heating Degree Days 0 7  
Month to date heating degree days 184 144  
Since 1 July heating degree days 6373 6211  
Cooling Degree Days 4 1  
Month to date cooling degree days 4 14  
Year to date cooling degree days 8 24  
Growing Degree Days 18 (Base 50)    
Moisture  
Dew Point 59 °F    
Average Humidity 77    
Maximum Humidity 97    
Minimum Humidity 63    
Precipitation  
Precipitation 0.44 in 0.12 in 1.38 in (1974)
Month to date precipitation 3.61 1.87  
Year to date precipitation 16.49 11.27  
Snow  
Snow 0.00 in 0.00 in 0.00 in ()
Month to date snowfall 0.0 0.0  
Since 1 July snowfall 49.5 36.3  
Snow Depth 0.00 in    
Sea Level Pressure  
Sea Level Pressure 29.79 in    
Wind  
Wind Speed 8 mph ()    
Max Wind Speed 26 mph    
Max Gust Speed 36 mph    
Visibility 8.6 miles    
Events Rain , Thunderstorm    
T = Trace of Precipitation, MM = Missing Value Source: Averaged Metar Reports

Daily Weather History Graph

Daily Weather History Graph

Search for Another Location

Airport or City:

Astronomy

May. 16, 2019 Rise Set
Actual Time 5:30 AM CDT 8:06 PM CDT
Civil Twilight 4:58 AM CDT 8:38 PM CDT
Nautical Twilight 4:18 AM CDT 9:18 PM CDT
Astronomical Twilight 3:33 AM CDT 10:03 PM CDT
Moon 5:41 PM CDT (5/16) 4:32 AM CDT (5/16)
Length of Visible Light 15h 39m
Length of Day
14h 35m
Waxing Gibbous, 94% of the Moon is Illuminated
May 16
Waxing Gibbous
May 18
Full
May 26
Last Quarter
Jun 3
New
Jun 10
First Quarter

Hourly Weather History & Observations

Time (CDT) Temp. Dew Point Humidity Pressure Visibility Wind Dir Wind Speed Gust Speed Precip Events Conditions
12:51 AM 63.0 °F 50.0 °F 63% 29.89 in 10.0 mi SSW 6.9 mph - N/A   Mostly Cloudy
1:51 AM 62.1 °F 50.0 °F 65% 29.88 in 10.0 mi SW 6.9 mph - N/A   Mostly Cloudy
2:51 AM 61.0 °F 50.0 °F 67% 29.88 in 10.0 mi SSW 6.9 mph - N/A   Overcast
3:51 AM 62.1 °F 50.0 °F 65% 29.87 in 10.0 mi SSW 10.4 mph - N/A   Overcast
4:51 AM 61.0 °F 50.0 °F 67% 29.87 in 10.0 mi SW 6.9 mph - N/A   Mostly Cloudy
5:51 AM 60.1 °F 52.0 °F 75% 29.86 in 10.0 mi SSW 10.4 mph - N/A   Overcast
6:51 AM 62.1 °F 55.0 °F 78% 29.86 in 10.0 mi SSW 13.8 mph - N/A   Mostly Cloudy
7:51 AM 64.9 °F 57.0 °F 75% 29.83 in 10.0 mi SSW 15.0 mph 25.3 mph N/A   Mostly Cloudy
8:51 AM 66.9 °F 57.0 °F 70% 29.83 in 10.0 mi SSW 15.0 mph 24.2 mph N/A   Overcast
9:51 AM 68.0 °F 55.9 °F 65% 29.82 in 10.0 mi SSW 13.8 mph 25.3 mph N/A   Overcast
10:51 AM 69.1 °F 57.0 °F 65% 29.81 in 10.0 mi SSW 8.1 mph - N/A   Overcast
11:51 AM 68.0 °F 60.1 °F 76% 29.87 in 7.0 mi NNW 13.8 mph 24.2 mph 0.00 in Rain Light Rain
11:54 AM 66.9 °F 60.1 °F 79% 29.87 in 7.0 mi NNW 13.8 mph 24.2 mph 0.00 in Rain , Thunderstorm Light Rain
12:03 PM 64.9 °F 60.1 °F 84% 29.88 in 5.0 mi NNW 17.3 mph 29.9 mph 0.02 in Rain , Thunderstorm Thunderstorms and Rain
12:08 PM 64.0 °F 60.1 °F 87% 29.88 in 2.5 mi NNW 12.7 mph 29.9 mph 0.04 in Rain , Thunderstorm Heavy Thunderstorms and Rain
12:31 PM 63.0 °F 62.1 °F 97% 29.86 in 5.0 mi WSW 4.6 mph - 0.12 in Rain Light Rain
12:38 PM 64.0 °F 61.0 °F 90% 29.86 in 5.0 mi South 5.8 mph - 0.13 in Rain , Thunderstorm Light Thunderstorms and Rain
12:51 PM 63.0 °F 61.0 °F 93% 29.84 in 4.0 mi South 8.1 mph - 0.15 in Rain , Thunderstorm Thunderstorms and Rain
12:55 PM 63.0 °F 61.0 °F 93% 29.82 in 4.0 mi SSE 9.2 mph - 0.02 in Rain Rain
1:01 PM 63.0 °F 61.0 °F 93% 29.79 in 6.0 mi SSE 10.4 mph - 0.03 in Rain Light Rain
1:51 PM 64.0 °F 59.0 °F 84% 29.69 in 10.0 mi South 11.5 mph 20.7 mph 0.05 in   Mostly Cloudy
2:51 PM 66.9 °F 60.1 °F 79% 29.71 in 10.0 mi South 13.8 mph 20.7 mph N/A   Overcast
3:51 PM 68.0 °F 61.0 °F 78% 29.71 in 10.0 mi SSW 8.1 mph 16.1 mph N/A   Mostly Cloudy
4:51 PM 72.0 °F 63.0 °F 73% 29.68 in 10.0 mi SSW 9.2 mph - N/A   Scattered Clouds
5:51 PM 75.9 °F 63.0 °F 64% 29.67 in 10.0 mi SSW 9.2 mph - N/A   Scattered Clouds
6:51 PM 75.0 °F 63.0 °F 66% 29.65 in 10.0 mi SSW 9.2 mph - N/A   Mostly Cloudy
7:51 PM 73.0 °F 63.0 °F 71% 29.67 in 10.0 mi SSW 8.1 mph - N/A   Mostly Cloudy
8:51 PM 71.1 °F 64.0 °F 78% 29.68 in 10.0 mi NNE 4.6 mph - 0.00 in   Overcast
9:51 PM 70.0 °F 64.0 °F 81% 29.67 in 10.0 mi North 5.8 mph - 0.00 in   Mostly Cloudy
10:51 PM 69.1 °F 63.0 °F 81% 29.67 in 10.0 mi North 3.5 mph - N/A   Mostly Cloudy
11:51 PM 69.1 °F 64.0 °F 84% 29.69 in 10.0 mi WSW 3.5 mph - N/A   Overcast